星链-32010 (STARLINK-32010)

导读

STARLINK-32010是美国太空探索技术公司(SpaceX)星链(Starlink)互联网星座中的一颗低轨通信卫星,于2024年7月28日发射入轨。星链星座旨在为全球提供高速宽带互联网接入,尤其覆盖偏远地区。该卫星采用平板设计、氪工质霍尔推进器,具备自主避撞能力,寿命末期会脱轨再入大气层烧毁,属第二代星链组网卫星,推动全球卫星互联网覆盖扩容。

Basic Information
目录编号:
60279
目录名称:
STARLINK-32010
国际标识:
2024-132B
轨道中心:
EARTH
卫星名称:
星链-32010 (STARLINK-32010)
卫星全名:
星链-32010 (STARLINK-32010)
卫星状态:
在轨 (已飞行690 天)
发射日期:
2024-07-28 UTC
国别 :
美国 (US)
星等 :
--
Orbit Information
数据来源 国际轨道数据 AOE轨道数据
星历时间 2026-06-17T23:04:31+0800
11小时前
查看轨道信息
2026-06-11T17:00:00+0800
6天前
查看轨道信息
半长轴 6848.837km 6848.896km
偏心率 0.0000798 0.0001124
轨道倾角 53.161° 53.161°
近地点辐角 111.229° 59.008°
升交点赤经 308.077° 337.190°
平近点角 248.880° 1.149°
近地点 470.153km 469.989km
远地点 471.247km 471.529km
周期 94.012分钟 94.014分钟
每日圈数 15.317137 15.316938
Detailed Information
卫星平台:
Starlink v2.0 mini
运营商:
太空探索技术公司
运营商所在国:
美国
制造商(研发单位):
太空探索技术公司
制造商所在国:
美国
使用方式:
暂无
Satellite Introduction
星链(Starlink)计划是由太空探索技术公司(SpaceX)提出的一个巨型低轨卫星互联网星座项目,计划在2019年至2024年间在太空搭建由约1.2万颗卫星组成的“星链”网络,其中1584颗将部署在地球上空550千米处的近地轨道,并从2020年开始工作。该卫星仍在工作。
2D Orbit Map
3D Orbit Map
Orbit Altitude Analysis Chart
Orbit Inclination Analysis Chart
Orbit Comprehensive Analysis Chart
View Comprehensive Chart